Home   Weather   Dübendorf   Past weeks

Flag for Switzerland Past Weather in Dübendorf, Zurich, Switzerland — Yesterday and Last 2 Weeks

Now
54 °F

Cool.


Feels Like: 54 °F
Forecast: 48 / 69 °F
Wind: 2 mph from Southeast

Location: Zuerich-Fluntern

Current Time: Sep 25, 2016 at 9:14:40 AM

Latest Report: Sep 25, 2016 at 8:00 AM


Visibility: N/A

Pressure: 30.19 "Hg

Humidity: 99%

Dew Point: 53 °F

Location of DübendorfLocation

Past Weather in Dübendorf — Graph

°F

Dübendorf Temperature Yesterday

Maximum temperature yesterday: 68 °F (at 5:00 PM)
Minimum temperature yesterday: 50 °F (at 5:00 AM)
Average temperature yesterday: 57 °F

High & Low Weather Summary for the Past Weeks

 TemperatureHumidityPressure
High82 °F (Sep 12, 4:00 PM)100% (Sep 20, 3:00 AM)30.33 "Hg (Sep 20, 3:00 AM)
Low46 °F (Sep 22, 5:00 AM)45% (Sep 13, 4:00 PM)29.78 "Hg (Sep 15, 3:00 AM)
Average61 °F79%30.04 "Hg
* Reported Sep 10 7:00 AM — Sep 25 7:00 AM, Dübendorf, Weather by CustomWeather, © 2016

Note: Actual official high and low records may vary slightly from our data, if they occured in-between our weather recording intervals... More about our weather records

Advertising

Dübendorf Weather History for the Previous 24 Hours

Scroll right to see more
 ConditionsComfort  
Time TempWeatherWind HumidityBarometerVisibility
7:00 AM
Sun, Sep 25
53 °FCool.2 mph98%30.19 "HgN/A
6:00 AM52 °FCool.No wind99%30.20 "HgN/A
5:00 AM54 °FCool.No wind97%30.19 "HgN/A
4:00 AM54 °FCool.1 mph95%30.19 "HgN/A
3:00 AM54 °FCool.No wind95%30.20 "HgN/A
2:00 AM54 °FCool.1 mph94%30.20 "HgN/A
1:00 AM55 °FCool.1 mph93%30.19 "HgN/A
12:00 AM55 °FCool.1 mph93%30.20 "HgN/A
11:00 PM
Sat, Sep 24
56 °FCool.No wind92%30.20 "HgN/A
10:00 PM57 °FCool.1 mph89%30.20 "HgN/A
9:00 PM57 °FCool.1 mph84%30.19 "HgN/A
8:00 PM59 °FClear.6 mph81%30.19 "HgN/A
7:00 PM62 °FMild.3 mph73%30.18 "HgN/A
6:00 PM66 °FMild.3 mph61%30.17 "HgN/A
5:00 PM68 °FMild.5 mph57%30.18 "HgN/A
4:00 PM68 °FMild.5 mph56%30.19 "HgN/A
3:00 PM67 °FMild.5 mph63%30.21 "HgN/A
2:00 PM64 °FMild.5 mph68%30.24 "HgN/A
1:00 PM61 °FCool.3 mph76%30.27 "HgN/A
12:00 PM59 °FCool.6 mph83%30.29 "HgN/A
11:00 AM54 °FCool.5 mph92%30.32 "HgN/A
10:00 AM52 °FCool.3 mph95%30.32 "HgN/A
9:00 AM51 °FCool.2 mph98%30.32 "HgN/A
Weather by CustomWeather, © 2016

See weather overviewHow to use our weather pages